| time (UTC) | temp C | wind direction | speed KPH | gust KPH | rain 1hr cm | rain 24hr cm | rain mn cm | humidity % | barometer mb |
| 20260504070318 | 6 | 252 | 0.0 | 3.2 | 0.00 | 0.00 | 0.00 | 81 | 1009.3 |
| 20260504050257 | 6 | 252 | 0.0 | 1.6 | 0.00 | 0.00 | 0.00 | 78 | 1010.5 |
| 20260504045756 | 6 | 252 | 0.0 | 1.6 | 0.00 | 0.00 | 0.00 | 78 | 1010.5 |
| 20260504045253 | 6 | 252 | 0.0 | 3.2 | 0.00 | 0.00 | 0.00 | 78 | 1010.5 |
| 20260504044752 | 6 | 252 | 0.0 | 3.2 | 0.00 | 0.00 | 0.00 | 77 | 1010.5 |
| 20260504044524 | 6 | 252 | 0.0 | 0.0 | 0.00 | 0.00 | 0.00 | 77 | 1010.4 |
| 20260504043751 | 6 | 252 | 0.0 | 0.0 | 0.00 | 0.00 | 0.00 | 77 | 1010.4 |
| 20260504043248 | 6 | 252 | 0.0 | 0.0 | 0.00 | 0.00 | 0.00 | 78 | 1010.3 |
| 20260504042749 | 6 | 252 | 0.0 | 0.0 | 0.00 | 0.00 | 0.00 | 77 | 1010.3 |
| 20260504042243 | 6 | 252 | 0.0 | 0.0 | 0.00 | 0.00 | 0.00 | 76 | 1010.3 |
| 20260504041744 | 6 | 252 | 0.0 | 0.0 | 0.00 | 0.00 | 0.00 | 76 | 1010.3 |
| 20260504041241 | 7 | 252 | 0.0 | 0.0 | 0.00 | 0.00 | 0.00 | 75 | 1010.3 |
| 20260504040739 | 7 | 252 | 0.0 | 0.0 | 0.00 | 0.00 | 0.00 | 74 | 1010.2 |
| 20260504040512 | 7 | 252 | 0.0 | 0.0 | 0.00 | 0.00 | 0.00 | 73 | 1010.3 |
| 20260504035741 | 7 | 252 | 0.0 | 0.0 | 0.00 | 0.00 | 0.00 | 73 | 1010.2 |
| 20260504035233 | 7 | 252 | 0.0 | 0.0 | 0.00 | 0.00 | 0.00 | 72 | 1010.3 |
| 20260504035004 | 7 | 252 | 0.0 | 0.0 | 0.00 | 0.00 | 0.00 | 71 | 1010.3 |
| 20260504034230 | 7 | 252 | 0.0 | 0.0 | 0.00 | 0.00 | 0.00 | 71 | 1010.3 |
| 20260504033732 | 8 | 252 | 0.0 | 0.0 | 0.00 | 0.00 | 0.00 | 70 | 1010.3 |
| 20260504033230 | 8 | 252 | 0.0 | 0.0 | 0.00 | 0.00 | 0.00 | 69 | 1010.3 |
| 20260504032729 | 8 | 252 | 0.0 | 0.0 | 0.00 | 0.00 | 0.00 | 69 | 1010.4 |
| 20260504032224 | 8 | 252 | 0.0 | 1.6 | 0.00 | 0.00 | 0.00 | 68 | 1010.4 |
| 20260504031725 | 8 | 252 | 0.0 | 1.6 | 0.00 | 0.00 | 0.00 | 67 | 1010.4 |
| 20260504031223 | 8 | 252 | 0.0 | 3.2 | 0.00 | 0.00 | 0.00 | 67 | 1010.3 |
| 20260504030723 | 8 | 252 | 0.0 | 3.2 | 0.00 | 0.00 | 0.00 | 66 | 1010.3 |
| 20260504030224 | 8 | 252 | 0.0 | 3.2 | 0.00 | 0.00 | 0.00 | 66 | 1010.3 |
| 20260504025957 | 9 | 252 | 0.0 | 3.2 | 0.00 | 0.00 | 0.00 | 64 | 1010.4 |
| 20260504025219 | 9 | 252 | 0.0 | 3.2 | 0.00 | 0.00 | 0.00 | 64 | 1010.5 |
| 20260504024720 | 9 | 252 | 0.0 | 1.6 | 0.00 | 0.00 | 0.00 | 63 | 1010.5 |
| 20260504024221 | 9 | 252 | 0.0 | 1.6 | 0.00 | 0.00 | 0.00 | 62 | 1010.4 |
| 20260504023952 | 9 | 252 | 0.0 | 0.0 | 0.00 | 0.00 | 0.00 | 63 | 1010.5 |
| 20260504023218 | 9 | 252 | 0.0 | 0.0 | 0.00 | 0.00 | 0.00 | 63 | 1010.5 |
| 20260504022718 | 9 | 252 | 0.0 | 0.0 | 0.00 | 0.00 | 0.00 | 61 | 1010.5 |
| 20260504022445 | 9 | 252 | 0.0 | 0.0 | 0.00 | 0.00 | 0.00 | 62 | 1010.5 |
| 20260504021715 | 10 | 252 | 0.0 | 0.0 | 0.00 | 0.00 | 0.00 | 60 | 1010.5 |
| 20260504021445 | 10 | 252 | 0.0 | 0.0 | 0.00 | 0.00 | 0.00 | 60 | 1010.5 |
| 20260504020714 | 10 | 252 | 0.0 | 0.0 | 0.00 | 0.00 | 0.00 | 60 | 1010.4 |
| 20260504020442 | 10 | 252 | 0.0 | 0.0 | 0.00 | 0.00 | 0.00 | 60 | 1010.3 |
| 20260504015708 | 10 | 252 | 0.0 | 0.0 | 0.00 | 0.00 | 0.00 | 59 | 1010.3 |
| 20260504015204 | 10 | 252 | 0.0 | 1.6 | 0.00 | 0.00 | 0.00 | 58 | 1010.2 |
| 20260504014700 | 10 | 252 | 0.0 | 1.6 | 0.00 | 0.00 | 0.00 | 58 | 1010.3 |
| 20260504014159 | 11 | 252 | 0.0 | 3.2 | 0.00 | 0.00 | 0.00 | 56 | 1010.4 |
| 20260504013658 | 11 | 252 | 0.0 | 3.2 | 0.00 | 0.00 | 0.00 | 55 | 1010.3 |
| 20260504013155 | 11 | 252 | 0.0 | 8.0 | 0.00 | 0.00 | 0.00 | 54 | 1010.3 |
| 20260504012926 | 11 | 252 | 0.0 | 8.0 | 0.00 | 0.00 | 0.00 | 53 | 1010.3 |
| 20260504012151 | 12 | 252 | 1.6 | 8.0 | 0.00 | 0.00 | 0.00 | 54 | 1010.2 |
| 20260504011649 | 12 | 252 | 1.6 | 4.8 | 0.00 | 0.00 | 0.00 | 51 | 1010.2 |
| 20260504011149 | 12 | 252 | 1.6 | 12.9 | 0.00 | 0.00 | 0.00 | 49 | 1010.2 |
| 20260504010656 | 12 | 252 | 3.2 | 17.7 | 0.00 | 0.00 | 0.00 | 47 | 1010.2 |
| 20260504010650 | 12 | 252 | 3.2 | 17.7 | 0.00 | 0.00 | 0.00 | 48 | 1010.2 |
| 20260504005644 | 13 | 252 | 1.6 | 8.0 | 0.00 | 0.00 | 0.00 | 47 | 1010.2 |
| 20260504005413 | 13 | 252 | 1.6 | 11.3 | 0.00 | 0.00 | 0.00 | 47 | 1010.2 |
| 20260504004639 | 13 | 252 | 3.2 | 14.5 | 0.00 | 0.00 | 0.00 | 46 | 1010.1 |
| 20260504004137 | 13 | 252 | 4.8 | 14.5 | 0.00 | 0.00 | 0.00 | 45 | 1010.1 |
| 20260504003636 | 13 | 253 | 6.4 | 16.1 | 0.00 | 0.00 | 0.00 | 45 | 1010.0 |
| 20260504003130 | 13 | 253 | 6.4 | 16.1 | 0.00 | 0.00 | 0.00 | 45 | 1010.0 |
| 20260504002630 | 13 | 253 | 4.8 | 16.1 | 0.00 | 0.00 | 0.00 | 45 | 1010.1 |
| 20260504002131 | 13 | 253 | 4.8 | 16.1 | 0.00 | 0.00 | 0.00 | 44 | 1010.1 |
| 20260504001632 | 13 | 253 | 3.2 | 16.1 | 0.00 | 0.00 | 0.00 | 44 | 1010.1 |
| 20260504001132 | 13 | 253 | 4.8 | 17.7 | 0.00 | 0.00 | 0.00 | 44 | 1010.0 |
| 20260504000633 | 13 | 254 | 4.8 | 19.3 | 0.00 | 0.00 | 0.00 | 43 | 1010.0 |
| 20260504000125 | 13 | 253 | 3.2 | 19.3 | 0.00 | 0.00 | 0.00 | 43 | 1010.0 |
| 20260503235855 | 13 | 253 | 3.2 | 17.7 | 0.00 | 0.00 | 0.00 | 43 | 1010.1 |
| 20260503235124 | 13 | 253 | 3.2 | 17.7 | 0.00 | 0.00 | 0.00 | 42 | 1010.0 |
| 20260503234626 | 14 | 254 | 3.2 | 17.7 | 0.00 | 0.00 | 0.00 | 41 | 1009.9 |
| 20260503234125 | 14 | 254 | 3.2 | 17.7 | 0.00 | 0.00 | 0.00 | 42 | 1009.9 |
| 20260503233624 | 14 | 254 | 4.8 | 14.5 | 0.00 | 0.00 | 0.00 | 42 | 1009.9 |
| 20260503233119 | 14 | 254 | 4.8 | 14.5 | 0.00 | 0.00 | 0.00 | 41 | 1009.9 |
| 20260503232619 | 14 | 254 | 3.2 | 16.1 | 0.00 | 0.00 | 0.00 | 41 | 1009.9 |
| 20260503232351 | 14 | 254 | 1.6 | 16.1 | 0.00 | 0.00 | 0.00 | 42 | 1010.0 |
| 20260503231620 | 14 | 254 | 3.2 | 17.7 | 0.00 | 0.00 | 0.00 | 40 | 1010.0 |
| 20260503231119 | 14 | 254 | 4.8 | 17.7 | 0.00 | 0.00 | 0.00 | 40 | 1010.0 |
| 20260503230619 | 14 | 254 | 3.2 | 17.7 | 0.00 | 0.00 | 0.00 | 40 | 1010.0 |
| 20260503230117 | 14 | 254 | 3.2 | 17.7 | 0.00 | 0.00 | 0.00 | 40 | 1010.0 |
| 20260503225616 | 14 | 255 | 3.2 | 17.7 | 0.00 | 0.00 | 0.00 | 40 | 1010.0 |
| 20260503225347 | 14 | 255 | 4.8 | 17.7 | 0.00 | 0.00 | 0.00 | 40 | 1010.0 |
| 20260503224615 | 15 | 256 | 4.8 | 17.7 | 0.00 | 0.00 | 0.00 | 40 | 1010.1 |
| 20260503224113 | 15 | 256 | 4.8 | 20.9 | 0.00 | 0.00 | 0.00 | 41 | 1010.1 |
| 20260503223615 | 15 | 255 | 4.8 | 20.9 | 0.00 | 0.00 | 0.00 | 40 | 1010.1 |
| 20260503223106 | 15 | 258 | 4.8 | 17.7 | 0.00 | 0.00 | 0.00 | 39 | 1010.0 |
| 20260503222606 | 15 | 259 | 8.0 | 27.4 | 0.00 | 0.00 | 0.00 | 39 | 1010.1 |
| 20260503222106 | 15 | 259 | 9.7 | 27.4 | 0.00 | 0.00 | 0.00 | 39 | 1010.1 |
| 20260503221607 | 15 | 254 | 6.4 | 24.1 | 0.00 | 0.00 | 0.00 | 38 | 1010.1 |
| 20260503221107 | 15 | 252 | 4.8 | 29.0 | 0.00 | 0.00 | 0.00 | 39 | 1009.9 |
| 20260503220612 | 16 | 252 | 4.8 | 16.1 | 0.00 | 0.00 | 0.00 | 38 | 1009.7 |
| 20260503220607 | 15 | 254 | 4.8 | 29.0 | 0.00 | 0.00 | 0.00 | 38 | 1009.7 |
| 20260503215602 | 16 | 253 | 4.8 | 24.1 | 0.00 | 0.00 | 0.00 | 38 | 1009.9 |
| 20260503215335 | 15 | 253 | 6.4 | 24.1 | 0.00 | 0.00 | 0.00 | 38 | 1009.9 |
| 20260503214603 | 15 | 254 | 8.0 | 19.3 | 0.00 | 0.00 | 0.00 | 38 | 1009.9 |
| 20260503214101 | 15 | 248 | 6.4 | 19.3 | 0.00 | 0.00 | 0.00 | 39 | 1009.9 |
| 20260503213601 | 15 | 250 | 6.4 | 20.9 | 0.00 | 0.00 | 0.00 | 39 | 1009.9 |
| 20260503213331 | 15 | 251 | 4.8 | 20.9 | 0.00 | 0.00 | 0.00 | 39 | 1009.9 |
| 20260503212559 | 15 | 248 | 4.8 | 19.3 | 0.00 | 0.00 | 0.00 | 38 | 1010.0 |
| 20260503212059 | 15 | 249 | 4.8 | 17.7 | 0.00 | 0.00 | 0.00 | 39 | 1009.9 |
| 20260503211557 | 15 | 252 | 6.4 | 17.7 | 0.00 | 0.00 | 0.00 | 38 | 1009.9 |
| 20260503211327 | 15 | 252 | 6.4 | 20.9 | 0.00 | 0.00 | 0.00 | 38 | 1009.9 |
| 20260503210557 | 15 | 251 | 6.4 | 20.9 | 0.00 | 0.00 | 0.00 | 39 | 1009.7 |
| 20260503210056 | 15 | 254 | 6.4 | 20.9 | 0.00 | 0.00 | 0.00 | 39 | 1009.9 |
| 20260503210052 | 15 | 263 | 6.4 | 20.9 | 0.00 | 0.00 | 0.00 | 39 | 1009.9 |
| 20260503205325 | 15 | 244 | 8.0 | 20.9 | 0.00 | 0.00 | 0.00 | 39 | 1009.9 |
| 20260503204551 | 15 | 250 | 6.4 | 20.9 | 0.00 | 0.00 | 0.00 | 38 | 1009.9 |
| 20260503204055 | 15 | 253 | 3.2 | 16.1 | 0.00 | 0.00 | 0.00 | 39 | 1010.1 |
| 20260503204050 | 15 | 250 | 4.8 | 19.3 | 0.00 | 0.00 | 0.00 | 38 | 1010.1 |
| 20260503203314 | 15 | 254 | 6.4 | 27.4 | 0.00 | 0.00 | 0.00 | 39 | 1010.1 |
| 20260503202541 | 15 | 254 | 8.0 | 27.4 | 0.00 | 0.00 | 0.00 | 38 | 1010.3 |
| 20260503202044 | 15 | 244 | 6.4 | 20.9 | 0.00 | 0.00 | 0.00 | 38 | 1010.2 |
| 20260503201543 | 15 | 241 | 8.0 | 27.4 | 0.00 | 0.00 | 0.00 | 39 | 1010.2 |
| 20260503201315 | 15 | 240 | 8.0 | 27.4 | 0.00 | 0.00 | 0.00 | 37 | 1010.4 |
| 20260503200813 | 15 | 247 | 4.8 | 19.3 | 0.00 | 0.00 | 0.00 | 38 | 1010.5 |
| 20260503200308 | 15 | 250 | 6.4 | 19.3 | 0.00 | 0.00 | 0.00 | 39 | 1010.5 |
| 20260503195538 | 15 | 250 | 8.0 | 20.9 | 0.00 | 0.00 | 0.00 | 39 | 1010.5 |
| 20260503195036 | 15 | 246 | 6.4 | 20.9 | 0.00 | 0.00 | 0.00 | 38 | 1010.8 |
| 20260503194538 | 14 | 252 | 6.4 | 20.9 | 0.00 | 0.00 | 0.00 | 40 | 1010.6 |
| 20260503194037 | 15 | 255 | 4.8 | 19.3 | 0.00 | 0.00 | 0.00 | 40 | 1010.9 |
| 20260503193538 | 15 | 259 | 4.8 | 29.0 | 0.00 | 0.00 | 0.00 | 40 | 1010.9 |
| 20260503193307 | 15 | 259 | 6.4 | 29.0 | 0.00 | 0.00 | 0.00 | 40 | 1011.0 |
| 20260503192535 | 14 | 240 | 4.8 | 19.3 | 0.00 | 0.00 | 0.00 | 41 | 1011.0 |
| 20260503192034 | 13 | 238 | 4.8 | 12.9 | 0.00 | 0.00 | 0.00 | 41 | 1011.3 |
| 20260503191533 | 13 | 238 | 4.8 | 20.9 | 0.00 | 0.00 | 0.00 | 41 | 1011.5 |
| 20260503191036 | 13 | 238 | 6.4 | 20.9 | 0.00 | 0.00 | 0.00 | 41 | 1011.3 |
| 20260503190807 | 13 | 234 | 6.4 | 16.1 | 0.00 | 0.00 | 0.00 | 40 | 1011.3 |
| 20260503190308 | 13 | 231 | 4.8 | 17.7 | 0.00 | 0.00 | 0.00 | 42 | 1011.5 |
| 20260503185531 | 13 | 231 | 6.4 | 20.9 | 0.00 | 0.00 | 0.00 | 40 | 1011.6 |
| 20260503185029 | 13 | 229 | 6.4 | 22.5 | 0.00 | 0.00 | 0.00 | 41 | 1011.6 |
| 20260503184531 | 14 | 223 | 6.4 | 22.5 | 0.00 | 0.00 | 0.00 | 41 | 1011.5 |
| 20260503184032 | 13 | 298 | 6.4 | 20.9 | 0.00 | 0.00 | 0.00 | 41 | 1011.5 |
| 20260503183530 | 13 | 296 | 6.4 | 20.9 | 0.00 | 0.00 | 0.00 | 40 | 1011.8 |
| 20260503183302 | 13 | 305 | 6.4 | 20.9 | 0.00 | 0.00 | 0.00 | 41 | 1011.7 |
| 20260503182527 | 13 | 325 | 4.8 | 17.7 | 0.00 | 0.00 | 0.00 | 42 | 1011.7 |
| 20260503182027 | 13 | 325 | 4.8 | 20.9 | 0.00 | 0.00 | 0.00 | 41 | 1011.8 |
| 20260503181526 | 13 | 326 | 8.0 | 22.5 | 0.00 | 0.00 | 0.00 | 41 | 1012.0 |
| 20260503181027 | 13 | 340 | 9.7 | 25.7 | 0.00 | 0.00 | 0.00 | 40 | 1012.0 |
| 20260503180529 | 13 | 333 | 8.0 | 25.7 | 0.00 | 0.00 | 0.00 | 40 | 1012.2 |
| 20260503180033 | 13 | 254 | 4.8 | 16.1 | 0.00 | 0.00 | 0.00 | 43 | 1012.1 |
| 20260503180027 | 14 | 241 | 4.8 | 20.9 | 0.00 | 0.00 | 0.00 | 41 | 1012.1 |
| 20260503175022 | 13 | 254 | 4.8 | 17.7 | 0.00 | 0.00 | 0.00 | 41 | 1012.1 |
| 20260503174522 | 13 | 255 | 6.4 | 22.5 | 0.00 | 0.00 | 0.00 | 41 | 1012.0 |
| 20260503174022 | 13 | 259 | 8.0 | 22.5 | 0.00 | 0.00 | 0.00 | 41 | 1012.2 |
| 20260503173753 | 13 | 256 | 6.4 | 22.5 | 0.00 | 0.00 | 0.00 | 40 | 1012.4 |
| 20260503173022 | 13 | 234 | 6.4 | 25.7 | 0.00 | 0.00 | 0.00 | 42 | 1012.2 |
| 20260503172753 | 13 | 234 | 6.4 | 25.7 | 0.00 | 0.00 | 0.00 | 41 | 1012.2 |
| 20260503172023 | 13 | 246 | 6.4 | 24.1 | 0.00 | 0.00 | 0.00 | 43 | 1012.1 |
| 20260503171517 | 12 | 246 | 8.0 | 24.1 | 0.00 | 0.00 | 0.00 | 43 | 1012.3 |
| 20260503171013 | 12 | 248 | 8.0 | 24.1 | 0.00 | 0.00 | 0.00 | 44 | 1012.3 |
| 20260503170513 | 12 | 250 | 8.0 | 24.1 | 0.00 | 0.00 | 0.00 | 43 | 1012.4 |
| 20260503151004 | 10 | 198 | 3.2 | 12.9 | 0.00 | 0.00 | 0.00 | 46 | 1013.6 |
| 20260503150735 | 10 | 198 | 3.2 | 12.9 | 0.00 | 0.03 | 0.00 | 48 | 1013.5 |
| 20260503131208 | 3 | 198 | 1.6 | 9.7 | 0.00 | 0.08 | 0.00 | 85 | 1014.3 |
| 20260503130436 | 2 | 198 | 1.6 | 8.0 | 0.00 | 0.08 | 0.00 | 91 | 1014.2 |
| 20260503110420 | 0 | 198 | 0.0 | 0.0 | 0.00 | 0.08 | 0.00 | 94 | 1014.1 |
| 20260503090358 | -1 | 198 | 0.0 | 0.0 | 0.00 | 0.08 | 0.00 | 93 | 1013.7 |
| 20260503081612 | -1 | 198 | 0.0 | 0.0 | 0.00 | 0.08 | 0.00 | 92 | 1013.6 |
| 20260503080841 | -1 | 198 | 0.0 | 0.0 | 0.00 | 0.08 | 0.00 | 92 | 1013.6 |
| 20260503080334 | -1 | 198 | 0.0 | 0.0 | 0.00 | 0.08 | 0.00 | 92 | 1013.6 |